Lyndonville, VT

11:27 PM EST on January 19, 2018 (GMT -0500)
Lyndonville

Weather History for KCDA - September, 2013

Change the Weather History Date:

Tuesday, September 17, 2013

  Actual Average (K1V4) Record (K1V4)
Temperature  
Mean Temperature 46 °F -  
Max Temperature 61 °F 67 °F 89 °F (1939)
Min Temperature 32 °F 46 °F 29 °F (1959)
Degree Days  
Heating Degree Days 18    
Moisture  
Dew Point 36 °F    
Average Humidity 69    
Maximum Humidity 93    
Minimum Humidity 36    
Precipitation  
Precipitation 0.00 in - - ()
Sea Level Pressure  
Sea Level Pressure 30.38 in    
Wind  
Wind Speed 2 mph (NW)    
Max Wind Speed 8 mph    
Max Gust Speed -    
Visibility 10 miles    
Events      
Averages and records for this station are not official NWS values.
T = Trace of Precipitation, MM = Missing Value Source: NWS Daily Summary

Daily Weather History Graph

Daily Weather History Graph

Search for Another Location

Airport or City:

Trip Planner

Search our weather history database for the weather conditions in past years. The results will help you decide how hot, cold, wet, or windy it might be!

Date:

Astronomy

Sep. 17, 2013 Rise Set
Actual Time 6:29 AM EDT 6:54 PM EDT
Civil Twilight 6:00 AM EDT 7:23 PM EDT
Nautical Twilight 5:25 AM EDT 7:58 PM EDT
Astronomical Twilight 4:50 AM EDT 8:33 PM EDT
Moon 5:41 PM EDT (9/17) 4:17 AM EDT (9/17)
Length of Visible Light 13h 23m
Length of Day
12h 25m
Waxing Gibbous, 96% of the Moon is Illuminated
Sep 17
Waxing Gibbous
Sep 19
Full
Sep 26
Last Quarter
Oct 4
New
Oct 11
First Quarter

Hourly Weather History & Observations

Time (EDT) Temp. Windchill Dew Point Humidity Pressure Visibility Wind Dir Wind Speed Gust Speed Precip Events Conditions
12:15 AM 38.3 °F - 32.0 °F 78% 30.32 in 10.0 mi Calm Calm - N/A   Clear
12:35 AM 37.6 °F - 32.0 °F 80% 30.33 in 10.0 mi Calm Calm - N/A   Scattered Clouds
12:55 AM 37.4 °F - 32.4 °F 82% 30.33 in 10.0 mi Calm Calm - N/A   Mostly Cloudy
1:15 AM 37.4 °F - 32.7 °F 83% 30.34 in 10.0 mi Calm Calm - N/A   Overcast
1:35 AM 36.7 °F 34.1 °F 33.8 °F 89% 30.34 in 10.0 mi NW 3.5 mph - N/A   Overcast
1:55 AM 39.0 °F 36.8 °F 33.8 °F 82% 30.34 in 10.0 mi East 3.5 mph - N/A   Overcast
2:15 AM 35.6 °F - 32.9 °F 90% 30.34 in 10.0 mi Calm Calm - N/A   Overcast
2:35 AM 35.6 °F - 32.9 °F 90% 30.35 in 10.0 mi Calm Calm - N/A   Scattered Clouds
2:55 AM 35.1 °F - 32.4 °F 90% 30.35 in 10.0 mi Calm Calm - N/A   Clear
3:15 AM 36.3 °F 33.7 °F 33.3 °F 89% 30.35 in 10.0 mi NNW 3.5 mph - N/A   Clear
3:35 AM 34.9 °F - 32.0 °F 89% 30.36 in 10.0 mi Calm Calm - N/A   Clear
3:55 AM 33.4 °F - 31.5 °F 92% 30.36 in 10.0 mi Calm Calm - N/A   Clear
4:15 AM 32.7 °F - 30.9 °F 93% 30.37 in 10.0 mi Calm Calm - N/A   Clear
4:35 AM 33.8 °F - 32.0 °F 93% 30.37 in 10.0 mi Calm Calm - N/A   Clear
4:55 AM 35.1 °F - 32.5 °F 91% 30.37 in 10.0 mi Calm Calm - N/A   Clear
5:15 AM 35.2 °F - 32.2 °F 89% 30.37 in 10.0 mi Calm Calm - N/A   Clear
5:35 AM 34.0 °F 31.0 °F 31.8 °F 92% 30.38 in 10.0 mi West 3.5 mph - N/A   Clear
5:55 AM 34.2 °F 31.2 °F 32.0 °F 92% 30.39 in 10.0 mi West 3.5 mph - N/A   Clear
6:15 AM 35.1 °F - 32.9 °F 92% 30.39 in 10.0 mi Calm Calm - N/A   Clear
6:35 AM 33.4 °F - 31.5 °F 92% 30.40 in 10.0 mi Calm Calm - N/A   Clear
6:55 AM 35.1 °F - 32.5 °F 91% 30.41 in 10.0 mi Calm Calm - N/A   Clear
7:15 AM 35.4 °F - 33.1 °F 91% 30.42 in 10.0 mi Calm Calm - N/A   Clear
7:35 AM 36.0 °F - 33.1 °F 89% 30.42 in 10.0 mi Calm Calm - N/A   Clear
7:55 AM 38.8 °F - 35.2 °F 87% 30.43 in 10.0 mi Calm Calm - N/A   Clear
8:15 AM 38.7 °F - 35.2 °F 87% 30.43 in 10.0 mi Calm Calm - N/A   Clear
8:35 AM 41.2 °F - 36.5 °F 83% 30.43 in 10.0 mi Calm Calm - N/A   Clear
8:55 AM 44.4 °F - 36.9 °F 75% 30.45 in 10.0 mi Calm Calm - N/A   Clear
9:15 AM 45.3 °F - 36.5 °F 71% 30.45 in 10.0 mi Calm Calm - N/A   Clear
9:35 AM 47.5 °F - 37.0 °F 67% 30.45 in 10.0 mi Calm Calm - N/A   Clear
9:55 AM 49.1 °F - 39.0 °F 68% 30.45 in 10.0 mi Calm Calm - N/A   Clear
10:15 AM 50.0 °F - 38.3 °F 64% 30.45 in 10.0 mi Calm Calm - N/A   Clear
10:35 AM 51.3 °F - 38.7 °F 62% 30.45 in 10.0 mi Calm Calm - N/A   Clear
10:55 AM 52.3 °F - 37.6 °F 57% 30.45 in 10.0 mi Calm Calm - N/A   Clear
11:15 AM 54.5 °F - 35.6 °F 49% 30.44 in 10.0 mi NNW 4.6 mph - N/A   Clear
11:35 AM 55.4 °F - 34.0 °F 44% 30.44 in 10.0 mi North 8.1 mph - N/A   Clear
11:55 AM 55.8 °F - 34.0 °F 44% 30.44 in 10.0 mi NW 8.1 mph - N/A   Clear
12:15 PM 56.8 °F - 33.4 °F 41% 30.43 in 10.0 mi NNW 6.9 mph - N/A   Clear
12:35 PM 57.0 °F - 33.8 °F 42% 30.43 in 10.0 mi WNW 3.5 mph - N/A   Clear
12:55 PM 57.7 °F - 34.2 °F 41% 30.43 in 10.0 mi NNE 4.6 mph - N/A   Clear
1:15 PM 57.4 °F - 34.2 °F 42% 30.42 in 10.0 mi West 5.8 mph - N/A   Clear
1:35 PM 58.8 °F - 35.6 °F 42% 30.41 in 10.0 mi NW 6.9 mph - N/A   Clear
1:55 PM 58.8 °F - 34.2 °F 40% 30.41 in 10.0 mi WNW 6.9 mph - N/A   Clear
2:15 PM 59.5 °F - 35.6 °F 41% 30.40 in 10.0 mi WNW 4.6 mph - N/A   Clear
2:35 PM 59.4 °F - 33.6 °F 38% 30.40 in 10.0 mi NW 4.6 mph - N/A   Clear
2:55 PM 60.4 °F - 34.0 °F 37% 30.39 in 10.0 mi WNW 5.8 mph - N/A   Clear
3:15 PM 59.9 °F - 33.1 °F 36% 30.38 in 10.0 mi NNW 5.8 mph - N/A   Clear
3:35 PM 60.8 °F - 34.3 °F 37% 30.38 in 10.0 mi NNW 5.8 mph - N/A   Clear
3:55 PM 61.2 °F - 35.8 °F 39% 30.37 in 10.0 mi North 8.1 mph - N/A   Clear
4:15 PM 60.8 °F - 36.1 °F 40% 30.37 in 10.0 mi North 5.8 mph - N/A   Clear
4:35 PM 60.6 °F - 36.0 °F 40% 30.36 in 10.0 mi North 5.8 mph - N/A   Clear
4:55 PM 60.1 °F - 35.8 °F 40% 30.35 in 10.0 mi NNE 5.8 mph - N/A   Clear
5:15 PM 60.3 °F - 37.0 °F 42% 30.35 in 10.0 mi West 3.5 mph - N/A   Clear
5:35 PM 59.4 °F - 37.0 °F 43% 30.35 in 10.0 mi North 4.6 mph - N/A   Clear
5:55 PM 58.5 °F - 38.3 °F 47% 30.35 in 10.0 mi NW 3.5 mph - N/A   Clear
6:15 PM 57.4 °F - 38.1 °F 49% 30.35 in 10.0 mi North 4.6 mph - N/A   Clear
6:35 PM 57.4 °F - 38.8 °F 50% 30.35 in 10.0 mi Calm Calm - N/A   Clear
6:55 PM 56.1 °F - 39.0 °F 53% 30.35 in 10.0 mi Calm Calm - N/A   Clear
7:15 PM 53.1 °F - 39.6 °F 60% 30.34 in 10.0 mi NW 3.5 mph - N/A   Clear
7:35 PM 52.7 °F - 39.9 °F 62% 30.35 in 10.0 mi Calm Calm - N/A   Clear
7:55 PM 51.6 °F - 40.1 °F 65% 30.35 in 10.0 mi Calm Calm - N/A   Clear
8:15 PM 51.8 °F - 39.6 °F 63% 30.35 in 10.0 mi Calm Calm - N/A   Clear
8:35 PM 50.2 °F - 40.1 °F 68% 30.36 in 10.0 mi Calm Calm - N/A   Clear
8:55 PM 47.5 °F - 39.0 °F 72% 30.35 in 10.0 mi Calm Calm - N/A   Clear
9:15 PM 47.3 °F - 40.3 °F 77% 30.35 in 10.0 mi Calm Calm - N/A   Clear
9:35 PM 46.9 °F - 40.8 °F 79% 30.35 in 10.0 mi Calm Calm - N/A   Clear
9:55 PM 45.3 °F 44.0 °F 40.3 °F 83% 30.35 in 10.0 mi West 3.5 mph - N/A   Clear
10:15 PM 44.4 °F - 40.1 °F 85% 30.35 in 10.0 mi Calm Calm - N/A   Clear
10:35 PM 44.2 °F - 40.3 °F 86% 30.35 in 10.0 mi Calm Calm - N/A   Clear
10:55 PM 42.8 °F - 39.4 °F 88% 30.35 in 10.0 mi Calm Calm - N/A   Clear
11:15 PM 42.1 °F - 39.2 °F 90% 30.35 in 10.0 mi Calm Calm - N/A   Clear
11:35 PM 42.1 °F - 39.0 °F 89% 30.34 in 10.0 mi Calm Calm - N/A   Clear
11:55 PM 41.2 °F - 38.5 °F 90% 30.34 in 10.0 mi Calm Calm - N/A   Clear